Regional Weather Roundup
Issued by NWS

Home | Current Version | Previous Version | Graphics & Text | Print | Product List | Glossary On
Versions: 1 2 3 4 5 6 7 8 9 10 11 12 13 14 15 16 17 18 19 20 21 22 23 24 25 26 27 28 29 30 31 32 33 34 35 36 37 38 39 40 41 42 43 44 45 46 47 48 49 50
000
ASUS43 KMKX 140659
RWRWI

WISCONSIN REGIONAL WEATHER ROUNDUP
NATIONAL WEATHER SERVICE MILWAUKEE/SULLIVAN WI
100 AM CST SUN FEB 14 2016

NOTE: "FAIR" INDICATES FEW OR NO CLOUDS BELOW 12,000 FEET WITH NO
SIGNIFICANT WEATHER AND/OR OBSTRUCTIONS TO VISIBILITY.

WIZ001-002-006>008-014>016-023>028-140800-
NORTHWEST WISCONSIN

CITY           SKY/WX    TMP DP  RH WIND       PRES   REMARKS
SUPERIOR ARPT  CLOUDY    -9 -13  82 CALM      30.34F
ASHLAND        CLOUDY   -15 -19  82 S3        30.34F
HAYWARD        CLOUDY   -16 -23  70 CALM      30.30F
SIREN          CLOUDY   -12 -20  69 CALM      30.31F
CUMBERLAND     CLOUDY    -6 -17  59 E5        30.28F WCI -17
RICE LAKE      CLOUDY    -3 -14  60 E5        30.33F WCI -14
CHETEK         CLOUDY    -5 -14  65 SE6       30.33F WCI -18
LADYSMITH      PTCLDY   -10 -17  72 E5        30.34F WCI -22
EAU CLAIRE     NOT AVBL
MENOMONIE      CLOUDY    -3 -14  60 E5        30.33F WCI -14
NEW RICHMOND   CLOUDY     2 -10  58 SE7       30.29F WCI -11
OSCEOLA        CLOUDY     4  -8  57 SE8       30.33F WCI  -9
$$

WIZ003>005-009-010-017-018-140800-
NORTH CENTRAL WISCONSIN

CITY           SKY/WX    TMP DP  RH WIND       PRES   REMARKS
MANITOWISH WTR CLOUDY   -20 -25  75 CALM      30.30S
ARBOR VITAE    CLOUDY   -13 -19  75 CALM      30.30S
WOODRUFF       CLOUDY   -13 -19  75 CALM      30.30S
RHINELANDER    CLOUDY   -14 -19  79 CALM      30.31S
EAGLE RIVER    CLOUDY   -17 -24  70 CALM      30.30S
LAND O LAKES   CLOUDY   -22 -28  71 CALM      30.30F
PHILLIPS       CLOUDY   -17 -23  76 CALM      30.30F
TOMAHAWK       CLOUDY   -19 -25  74 CALM      30.33S
MEDFORD        PTCLDY   -14 -19  77 CALM      30.31S
MERRILL        CLOUDY   N/A N/A N/A CALM      30.35F
$$

WIZ029-030-035-036-043>047-140800-
CENTRAL WISCONSIN

CITY           SKY/WX    TMP DP  RH WIND       PRES   REMARKS
WAUSAU         PTCLDY   -10 -15  78 E3        30.35F
MOSINEE        PTCLDY    -9 -15  77 CALM      30.35F
MARSHFIELD     CLOUDY    -4 -12  68 CALM      30.33F
STEVENS POINT  CLOUDY   -15 -21  77 CALM      30.38F
WAUPACA        CLOUDY    -8 -15  72 CALM      30.43S
WAUTOMA        NOT AVBL
WISC RAPIDS    CLOUDY    -8 -14  74 CALM      30.38F
CAMP DOUGLAS   NOT AVBL
$$

WIZ011>013-019>022-031-037>040-048>050-140800-
NORTHEAST WISCONSIN

CITY           SKY/WX    TMP DP  RH WIND       PRES   REMARKS
ANTIGO         CLOUDY   -15 -20  78 CALM      30.33F
SHAWANO        PTCLDY    -2  -8  76 CALM      30.43F
OCONTO         CLOUDY    -9 -13  83 CALM      30.44S
STURGEON BAY   CLOUDY     1  -9  60 CALM      30.44S
GREEN BAY      CLOUDY    -6 -12  75 CALM      30.44F
MANITOWOC      NOT AVBL
APPLETON       CLOUDY     1 -13  51 CALM      30.39F
CLINTONVILLE   PTCLDY    -8 -13  77 CALM      30.41F
OSHKOSH        CLOUDY    -2 -10  69 S5        30.42F WCI -12
$$

WIZ032>034-041-042-053>061-140800-
SOUTHWEST WISCONSIN

CITY           SKY/WX    TMP DP  RH WIND       PRES   REMARKS
LA CROSSE      CLOUDY     4  -7  60 E6        30.37F WCI  -7
SPARTA         CLOUDY    -8 -13  80 CALM      30.38F
VIROQUA        CLOUDY     4  -7  60 SE8       30.32F WCI  -9
BOSCOBEL       CLOUDY     4  -4  69 VRB3      30.40F
PRAIRIE DU CHI CLOUDY     8  -6  52 SE5       30.39S WCI  -1
PLATTEVILLE    CLOUDY     9   0  65 E9        30.36F WCI  -4
$$

WIZ056-057-062-063-064-067-068-140800-
SOUTH CENTRAL WISCONSIN

CITY           SKY/WX    TMP DP  RH WIND       PRES   REMARKS
REEDSBURG      CLOUDY    -6 -11  77 CALM      30.39F
BARABOO/DELLS  CLOUDY    -4 -13  65 CALM      30.39S
LONE ROCK      NOT AVBL
MINERAL POINT  CLOUDY     9  -6  52 E6        30.35F WCI  -1
MADISON        CLOUDY     4  -6  63 SE6       30.40F WCI  -7
MIDDLETON      CLOUDY     1  -5  78 CALM      30.40F
WATERTOWN      CLOUDY     1  -5  78 CALM      30.42F
MONROE         CLOUDY     9   0  66 SE7       30.38S WCI  -3
JANESVILLE     PTCLDY    10   0  61 E7        30.41F WCI   0
$$

WIZ051-052-058>065-066-070>072-140800-
SOUTHEAST WISCONSIN

CITY           SKY/WX    TMP DP  RH WIND       PRES   REMARKS
MILWAUKEE      PTCLDY     5  -6  60 CALM      30.45F
WAUKESHA       CLOUDY     0  -6  78 CALM      30.44F
MILWAUKEE/TIMM PTCLDY     3  -4  72 CALM      30.46F
RACINE         CLEAR      4  -6  63 CALM      30.46F
BURLINGTON     CLOUDY    -1  -4  86 NE3       30.43F
KENOSHA        PTCLDY     2  -3  80 NE3       30.44F
FOND DU LAC    PTCLDY    -6 -11  79 S6        30.43F WCI -19
SHEBOYGAN      CLOUDY    -2  -8  76 SW3       30.44F
WEST BEND      CLOUDY    -2  -8  78 CALM      30.43F
JUNEAU         CLOUDY    -1  -6  77 E6        30.43F WCI -12
$$

LSZ147-162-140800-
LAKE SUPERIOR

STATION/POSITION TIME  TEMP    WIND        PRES    WAVE
                       AIR SEA DIR/SP/G            HT/PER
                 (UTC) (F)     (DEG/KT/KT) (MB)    (FT/S)
DEVILS ISLAND    0600    9     190/  7/  9 1030.0R
SAXON HARBOR     0640  -15                 1028.1F
$$

LMZ867-665-643>646-140800-
LAKE MICHIGAN

STATION/POSITION TIME  TEMP    WIND        PRES    WAVE
                       AIR SEA DIR/SP/G            HT/PER
                 (UTC) (F)     (DEG/KT/KT) (MB)    (FT/S)
CHAMBERS ISLAND  0600    0     170/  3/  4 1030.1S
SISTER BAY       0520    4        CALM       N/A
ALGOMA LAKESHORE 0511             CALM       N/A
KEWAUNEE LAKESHO 0600    1     300/  6/  7 1030.1R
SHEBOYGAN LAKESH 0600    5     250/  9/ 10 1033.3F
PORT WASHINGTON  0600    5     280/  4/  5 1032.5F
MILWAUKEE LAKESH 0610   10     290/  4/  5   N/A
KENOSHA   LAKESH 0600    9     280/  5/  6 1031.2F
$$

TC  - TEMPERATURE IN CELSIUS
VSB - VISIBILITY IN STATUTE MILES
WCI - WIND CHILL INDEX
HX  - HEAT INDEX




USA.gov is the U.S. government's official web portal to all federal, state and local government web resources and services.